Weather Roundup
Issued by NWS

Home | Current Version | Previous Version | Graphics & Text | Print | Product List | Glossary Off
Versions: 1 2 3 4 5 6 7 8 9 10 11 12 13 14 15 16 17 18 19 20 21 22 23 24 25 26 27 28 29 30 31 32 33 34 35 36 37 38 39 40 41 42 43 44 45 46 47 48 49 50

239
NZUS93 KARX 251410
HRRWXR

CURRENT HOURLY OBSERVATIONS ACROSS
MUCH OF THE UPPER MISSISSIPPI VALLEY
NATIONAL WEATHER SERVICE LA CROSSE WI
900 AM CDT SUN SEP 25 2016


...SOUTHEAST MINNESOTA...


CITY           SKY/WX    TMP DP  RH WIND       PRES   REMARKS
ROCHESTER      LGT RAIN  68  67  96 SW13G21   29.93F FOG
ROCHESTER/MAYO   N/A     68  68 100 S8        29.92F
WINONA         CLOUDY    70  66  88 CALM      29.93F FOG
AUSTIN         LGT RAIN  63  61  94 W8G17     29.96R
ALBERT LEA     CLOUDY    63  63 100 W5        29.95F
DODGE CENTER   LGT RAIN  64  63  94 W15       29.94R
PRESTON        CLOUDY    67  65  91 S10G17    29.95F FOG
OWATONNA       PTSUNNY   64  61  88 W14       29.95R
FARIBAULT      CLOUDY    61  61 100 W13G23    29.94R
$$

...ELSEWHERE IN MINNESOTA...


CITY           SKY/WX    TMP DP  RH WIND       PRES   REMARKS
MINNEAPOLIS    CLOUDY    63  60  90 W12       29.90R
INTNL FALLS    CLOUDY    63  61  93 VRB7      29.72F
DULUTH         LGT RAIN  63  62  97 SE10      29.82F FOG
RED WING       HVY RAIN  70  66  88 S6        29.88F
REDWOOD FALLS  SUNNY     57  49  74 SW14G23   29.91F
MANKATO        CLOUDY    58  53  84 SW12      29.95S
WORTHINGTON    SUNNY     55  48  77 W15       29.99S
FAIRMONT       CLOUDY    57  51  80 W9        29.98S
$$

...SOUTHWEST WISCONSIN...


CITY           SKY/WX    TMP DP  RH WIND       PRES   REMARKS
LA CROSSE      PTSUNNY   69  65  86 S14       29.94S
PRAIRIE DU CHI PTSUNNY   70  65  84 CALM      29.96R
BOSCOBEL       CLOUDY    72  66  81 CALM      29.96F
LONE ROCK      MOSUNNY   70  66  87 E8        29.98F
PLATTEVILLE    SUNNY     70  69  97 S12       30.00F
FORT MC COY    CLOUDY    66  64  94 CALM      29.96S
CAMP DOUGLAS   MOSUNNY   65  63  94 SE9       29.95F
MAUSTON-NEW LI MOSUNNY   65  64  94 SE8       29.95F
VIROQUA        CLOUDY    66  66 100 S6        29.97F
WIS DELLS      PTSUNNY   68  63  85 S12       29.99F
$$

...ELSEWHERE IN WISCONSIN...


CITY           SKY/WX    TMP DP  RH WIND       PRES   REMARKS
MILWAUKEE      CLOUDY    69  62  78 S13       30.08S
MADISON        PTSUNNY   68  65  90 S12       30.01F
GREEN BAY      CLOUDY    66  65  96 SE12G20   30.05F
EAU CLAIRE     RAIN      65  63  93 SE7       29.91F FOG
BLACK RVR FLS  CLOUDY    65  65 100 SE3       29.95S FOG
MEDFORD        LGT RAIN N/A N/A N/A S8        29.96F
WAUSAU         CLOUDY    61  59  93 SE10      29.98F
WIS RAPIDS     CLOUDY    65  63  93 S7        29.99F
MARSHFIELD     HVY RAIN  63  61  93 SE9       29.96F VSB 3/4
RICE LAKE      CLOUDY    64  62  94 CALM      29.91F FOG
$$

...NORTHEAST IOWA...


CITY           SKY/WX    TMP DP  RH WIND       PRES   REMARKS
WATERLOO       CLOUDY    70  67  90 SW8       29.96S
DUBUQUE        MOSUNNY   69  66  90 S15       29.98F FOG
DECORAH        CLOUDY    66  66 100 VRB5      29.96S FOG
MASON CITY     CLOUDY    63  61  93 W14       29.99R
CHARLES CITY   CLOUDY    68  68 100 SW8       29.97S
OELWEIN        MOSUNNY   70  68  94 S9        29.99S FOG
$$

...ELSEWHERE IN IOWA...


CITY           SKY/WX    TMP DP  RH WIND       PRES   REMARKS
DES MOINES     LGT RAIN  66  64  93 NW22      30.00R
IOWA CITY      PTSUNNY   71  67  87 S5        30.00R
FORT DODGE     PTSUNNY   57  54  88 W9        30.03R
MARSHALLTOWN   CLOUDY    69  68  96 SW8       29.97F
CEDAR RAPIDS   MOSUNNY   72  69  90 SW9       29.98S
$$

...NORTHERN ILLINOIS...


CITY           SKY/WX    TMP DP  RH WIND       PRES   REMARKS
CHICAGO-OHARE  PTSUNNY   67  58  72 SE10      30.08S
CHICAGO-MIDWAY MOSUNNY   68  56  65 SE7       30.08F
MOLINE         SUNNY     73  66  78 SE6       29.98F
ROCKFORD       PTSUNNY   70  65  84 S12       30.05F
PEORIA         MOSUNNY   75  69  81 S8        30.04F
$$

NOTE: "FAIR" INDICATES FEW OR NO CLOUDS BELOW 12,000 FEET WITH NO
SIGNIFICANT WEATHER AND/OR OBSTRUCTIONS TO VISIBILITY. WIND
SPEEDS ARE IN MILES-PER-HOUR.




USA.gov is the U.S. government's official web portal to all federal, state and local government web resources and services.